Flag for Germany Weather past 2 weeks in Witzenhausen, Hesse, Germany

Now
55 °F

Partly sunny.


Feels Like: 54 °F
Forecast: 47 / 58 °F
Wind: 6 mph from Southeast

Location: Kassel / Calden

Current Time: Oct 25, 2014 at 4:48:33 PM

Latest Report: Oct 25, 2014 at 4:20 PM


Visibility: 6 mi

Pressure: 30.12 "Hg

Humidity: 82%

Dew point: 50 °F

Location of WitzenhausenLocation

Historic Weather in Witzenhausen — Graph

°F

Witzenhausen temperature yesterday

Maximum temperature yesterday: 55 °F (at 1:50 PM)
Minimum temperature yesterday: 46 °F (at 8:20 AM)
Average temperature yesterday: 51 °F

Past Weeks' High & Low Weather Summary

 TemperatureHumidityPressure
High68 °F (Oct 19, 2:50 PM)100% (Oct 11, 8:20 AM)30.21 "Hg (Oct 11, 8:20 AM)
Low45 °F (Oct 22, 5:50 AM)59% (Oct 15, 3:20 PM)29.47 "Hg (Oct 21, 5:50 PM)
Average55 °F84%29.93 "Hg
* Reported Oct 10 3:20 PM — Oct 25 3:50 PM, Witzenhausen, Weather by CustomWeather, © 2014

Note: Actual official high and low records may vary slightly from our data, if they occured in-between our weather recording intervals... More about our weather records

Advertising

Witzenhausen weather history for previous 24 hours

 ConditionsComfort  
Time TempWeatherWind HumidityBarometerVisibility
3:50 PM
Oct 25
55 °FPartly sunny.5 mph82%30.12 "HgN/A
3:20 PM55 °FPartly sunny.3 mph82%30.09 "HgN/A
2:50 PM57 °FPartly sunny.6 mph72%30.09 "HgN/A
2:20 PM57 °FPartly sunny.6 mph77%30.09 "HgN/A
1:50 PM55 °FPartly sunny.7 mph77%30.09 "HgN/A
1:20 PM55 °FBroken clouds.8 mph77%30.09 "HgN/A
12:50 PM54 °FBroken clouds.8 mph77%30.09 "HgN/A
12:20 PM54 °FBroken clouds.8 mph77%30.09 "HgN/A
11:50 AM52 °FPartly sunny.9 mph82%30.09 "HgN/A
11:20 AM52 °FPartly sunny.7 mph77%30.09 "HgN/A
10:50 AM52 °FBroken clouds.6 mph77%30.09 "HgN/A
10:20 AM50 °FPartly sunny.6 mph82%30.09 "HgN/A
9:50 AM50 °FBroken clouds.5 mph82%30.09 "HgN/A
9:20 AM50 °FBroken clouds.6 mph82%30.09 "HgN/A
8:50 AM50 °FPassing clouds.5 mph82%30.07 "HgN/A
8:20 AM50 °FPartly cloudy.6 mph82%30.07 "HgN/A
7:50 AM48 °FOvercast.2 mph87%30.07 "HgN/A
7:20 AM48 °FOvercast.5 mph87%30.07 "HgN/A
6:50 AM48 °FMostly cloudy.8 mph82%30.07 "HgN/A
6:20 AM48 °FPassing clouds.7 mph82%30.07 "HgN/A
5:50 AM48 °FPassing clouds.6 mph82%30.07 "HgN/A
9:50 PM
Oct 24
50 °FClear.9 mph76%30.09 "Hg10 mi
9:20 PM50 °FClear.9 mph76%30.09 "Hg10 mi
8:50 PM50 °FClear.7 mph76%30.09 "Hg10 mi
8:20 PM48 °FClear.3 mph82%30.09 "Hg10 mi
7:50 PM48 °FClear.3 mph82%30.12 "Hg10 mi
7:20 PM48 °FClear.1 mph82%30.09 "Hg10 mi
6:50 PM50 °FSunny.3 mph76%30.09 "Hg10 mi
6:20 PM52 °FSunny.6 mph72%30.09 "Hg10 mi
5:50 PM54 °FSunny.7 mph67%30.09 "Hg10 mi
5:20 PM54 °FSunny.6 mph72%30.12 "Hg10 mi
4:50 PM54 °FPassing clouds.8 mph72%30.12 "HgN/A
4:20 PM54 °FPassing clouds.10 mph72%30.12 "HgN/A
Weather by CustomWeather, © 2014

See weather overviewHow to use our weather pages